Wind_Speed
17 16 15 14 15 15 15 17 18 18 18 18 18 18 17 17 17 16 15 16 17 17 17 17 16 15 15 15 14 14 14 13 12 11 11 10 8 7 7 7 7 6 6 6 5 6 6 6 6 6 5 5 5 4 4 4 4 4 4 5 4 3 4
16 15 15 15 14 14 16 19 19 18 18 18 18 17 17 17 18 17 16 17 18 17 17 18 18 17 16 15 15 14 15 14 13 12 11 10 9 8 8 7 7 6 6 5 5 5 5 6 6 6 6 6 6 5 5 5 6 6 5 5 5 4 4
16 16 15 15 14 13 15 18 19 19 19 18 17 17 17 18 19 19 18 18 18 18 18 18 18 17 16 16 16 15 15 15 14 13 13 12 11 10 9 7 7 7 6 6 6 6 6 6 7 7 7 7 7 6 6 6 6 7 6 5 5 4 4
16 17 16 15 14 14 15 17 18 19 19 18 17 18 19 20 20 19 19 18 18 19 19 18 17 17 16 16 16 16 16 16 15 14 14 13 12 11 10 9 9 8 7 7 7 7 6 6 7 7 8 8 7 7 6 6 6 7 7 6 6 5 5
15 15 14 14 14 12 13 16 17 18 18 18 17 17 19 19 18 17 17 17 18 19 19 18 17 16 16 16 15 15 15 16 15 14 13 13 12 12 12 11 10 9 9 8 8 8 7 7 7 8 9 9 9 8 7 7 7 7 7 7 7 6 5
13 12 12 13 13 11 12 14 16 16 16 17 17 16 16 17 17 16 15 16 17 17 17 17 17 16 16 16 16 15 14 14 15 15 14 13 13 13 13 12 11 10 10 9 9 9 8 8 8 8 9 9 9 9 8 8 8 7 7 7 6 6 5
14 14 13 13 12 10 12 15 16 16 16 16 16 16 16 16 16 16 15 15 16 16 16 17 17 16 16 15 15 15 15 14 14 15 15 14 14 14 13 12 12 11 10 10 10 9 9 9 9 9 9 9 9 8 7 7 7 6 6 6 6 6 6
14 14 13 14 12 11 14 15 14 14 15 15 15 15 15 15 16 16 15 15 15 16 16 17 17 17 16 15 15 15 15 15 14 14 15 15 15 15 15 14 13 12 11 11 11 10 10 10 10 10 9 9 9 8 7 7 7 7 7 7 6 7 7
12 12 13 14 14 13 14 15 14 13 13 14 14 14 15 15 15 16 16 16 16 17 17 16 16 16 16 16 16 16 15 15 15 14 15 16 16 16 16 15 14 13 13 12 11 11 11 11 10 10 10 9 9 8 9 8 8 8 7 7 7 7 7
9 10 12 13 13 12 13 16 17 16 15 14 14 14 15 15 14 14 15 15 16 17 17 16 15 15 15 15 15 15 15 15 15 15 15 16 16 16 16 16 14 13 13 13 12 12 12 11 11 10 10 10 9 9 10 10 10 10 9 8 8 8 8
7 8 10 12 11 11 12 13 14 14 14 15 15 14 15 14 14 14 14 14 15 15 16 16 15 15 15 14 14 14 15 15 15 15 15 15 16 16 16 16 15 14 13 14 13 12 12 12 12 11 11 11 10 10 11 11 10 10 10 9 9 9 9
6 6 9 11 10 9 10 11 11 11 12 12 12 13 13 13 14 13 12 12 12 12 14 15 16 16 15 14 14 14 14 14 15 15 15 15 15 15 15 15 15 14 13 13 13 13 12 12 12 12 12 11 11 11 11 11 11 11 11 10 10 9 9
6 6 6 8 8 7 8 9 10 11 10 9 8 9 9 11 13 13 11 10 10 11 12 14 15 15 15 14 14 14 14 14 15 15 15 14 14 14 14 14 15 14 14 14 14 14 13 13 13 12 12 12 11 11 11 11 11 11 11 11 10 10 10
6 6 5 6 6 5 7 8 9 10 11 10 8 7 7 8 11 13 13 12 13 13 14 13 13 14 14 14 14 14 14 13 14 14 14 13 13 13 13 13 14 14 14 14 14 15 14 14 13 12 12 12 11 11 11 11 12 12 12 12 11 11 11
7 7 7 6 6 6 6 6 6 8 11 12 11 10 10 10 11 12 13 13 14 16 17 17 16 14 13 13 13 13 12 12 11 11 11 10 11 12 13 13 13 13 13 14 14 14 14 14 14 13 13 12 12 12 12 12 12 12 12 12 11 11 11
7 7 7 7 7 7 7 7 8 7 7 9 10 11 11 10 11 12 12 13 14 16 17 19 19 18 17 17 15 13 12 11 10 9 10 10 10 11 12 13 13 13 13 13 14 14 14 14 14 14 13 12 12 12 13 13 13 13 13 12 11 10 11
6 7 8 8 7 7 8 9 10 10 10 9 7 7 7 6 6 6 6 8 11 13 14 16 17 18 19 20 18 17 15 13 12 11 10 11 10 11 12 12 12 13 13 13 13 13 13 14 14 14 14 13 14 14 14 14 14 14 14 13 12 11 11
7 8 9 10 9 9 9 10 12 13 12 12 11 10 9 9 8 5 3 3 4 5 7 10 14 16 18 18 16 17 18 18 18 15 13 12 12 12 12 11 12 13 13 13 14 13 13 14 14 15 15 14 15 15 15 14 14 14 14 13 12 11 11
9 10 10 10 11 11 11 11 13 14 14 13 12 11 9 9 8 7 5 4 3 4 4 5 8 12 14 15 14 15 15 16 17 16 14 14 14 13 12 12 12 14 14 15 15 14 14 14 15 15 15 15 15 15 15 14 13 13 12 13 13 13 13
9 10 11 11 11 11 13 14 15 15 15 15 14 13 11 10 10 10 9 8 6 6 5 5 4 4 5 6 9 12 12 13 15 15 14 14 14 14 13 13 13 13 14 14 15 15 14 14 15 15 16 15 15 15 15 14 13 12 12 13 14 15 15
10 11 11 10 11 13 15 16 17 17 17 16 15 15 13 12 13 13 13 13 12 11 10 10 9 7 7 7 5 6 7 9 11 12 13 14 15 15 15 14 14 14 13 14 15 16 16 16 15 15 15 15 15 15 14 12 13 14 14 15 16 16 16
10 11 11 11 12 14 15 16 17 17 16 15 15 14 14 13 14 15 17 17 16 15 14 15 14 12 12 12 11 10 8 7 6 6 7 10 12 11 11 11 12 11 11 14 16 16 16 16 16 15 14 13 13 13 12 11 13 15 15 16 16 15 13
12 13 15 15 15 15 15 15 16 16 15 15 15 13 13 13 13 15 17 17 16 15 14 16 16 15 15 16 15 14 13 12 11 10 9 8 7 6 6 6 8 9 10 11 12 13 13 14 12 12 12 11 11 11 11 11 14 16 16 17 17 14 12
16 17 18 17 16 16 15 15 16 16 16 17 16 14 14 14 14 15 16 16 15 14 14 14 13 13 14 15 15 15 14 12 12 11 10 9 7 6 5 4 4 6 8 9 9 8 9 9 7 4 5 7 7 7 7 9 11 13 14 15 16 15 13
16 17 17 17 16 16 16 15 16 16 16 16 15 14 13 13 13 15 15 14 13 14 14 12 11 11 12 11 12 13 13 12 11 10 9 8 8 8 7 5 2 3 5 6 7 6 4 4 4 2 1 1 2 4 5 5 5 8 10 11 12 14 12
16 16 16 17 17 16 16 15 16 16 15 14 13 12 11 11 12 13 13 13 12 13 13 12 10 10 10 10 10 11 12 11 11 10 10 9 8 8 7 5 1 3 3 2 4 4 2 3 4 3 3 3 4 4 3 2 1 2 4 6 8 10 9
16 16 16 17 17 15 15 15 15 15 14 13 12 11 11 11 12 13 12 12 12 12 11 10 10 9 9 9 9 10 10 10 9 9 9 9 8 6 6 5 3 3 4 2 2 3 5 6 7 8 9 8 6 5 5 4 3 3 2 2 2 4 5
13 14 16 16 14 13 14 14 15 15 14 12 11 11 10 11 11 11 10 11 11 10 8 8 8 8 8 8 8 9 9 9 9 8 9 9 9 7 7 6 6 6 5 4 5 7 8 10 11 11 11 9 6 4 3 2 2 1 1 2 4 4 4
10 12 14 14 13 12 13 13 13 13 12 11 10 10 10 10 10 10 10 10 9 8 7 7 7 7 7 7 7 7 8 8 8 8 8 8 8 8 9 8 7 7 6 6 7 8 9 11 12 11 10 9 7 5 3 1 1 3 3 2 1 2 5
10 10 12 12 12 11 10 11 11 11 11 10 9 9 9 9 9 9 10 9 7 6 6 5 5 5 6 6 6 6 6 6 6 6 7 7 7 8 8 8 8 8 7 7 7 7 9 10 10 8 8 8 8 7 6 5 4 2 2 2 3 4 6
9 9 11 12 11 10 10 10 11 10 10 9 9 8 8 8 8 9 8 6 5 4 4 4 4 4 4 5 5 5 5 5 5 6 5 5 5 6 6 5 6 6 6 6 6 6 7 7 7 6 6 6 6 6 6 6 5 5 4 4 5 6 7
8 9 10 10 9 8 8 8 8 8 8 8 8 8 8 7 8 7 6 5 4 4 4 4 4 4 4 4 4 4 4 4 4 5 5 4 4 5 5 4 5 5 5 5 5 5 5 4 4 3 4 4 4 4 4 3 3 3 5 6 7 7 7
6 8 9 8 9 9 7 5 5 6 7 7 7 7 7 7 7 7 6 5 5 5 5 4 4 4 4 4 4 4 4 4 4 3 4 4 3 4 4 4 4 5 5 4 4 4 4 3 3 2 2 2 2 2 2 1 0 3 6 7 8 8 8
7 8 8 7 6 6 6 6 7 7 7 7 6 6 7 7 7 6 6 6 6 5 5 5 5 5 5 4 4 4 4 4 4 3 4 4 4 4 5 5 4 5 6 6 5 4 4 3 3 3 3 3 3 3 2 1 1 3 6 7 7 7 7
14 13 13 12 7 4 4 7 8 8 9 8 6 6 7 7 7 7 6 6 6 5 6 6 6 5 5 5 5 5 4 4 4 4 4 4 4 5 6 6 5 4 5 5 5 4 3 3 3 3 4 4 3 3 3 3 4 5 7 7 6 6 6
17 16 15 15 11 7 6 8 9 9 9 8 7 6 6 6 6 6 6 6 6 6 6 6 5 6 6 6 6 6 5 5 5 5 5 4 4 4 5 5 5 4 3 4 4 4 3 3 3 3 3 3 3 3 3 3 4 6 7 7 6 6 6
17 15 14 14 11 9 9 9 9 10 9 8 7 7 6 6 6 5 6 6 6 6 6 5 5 5 5 6 6 6 6 6 5 5 5 5 4 3 2 2 3 4 4 4 4 3 3 3 3 3 3 1 1 2 3 4 4 5 6 6 6 6 5
16 15 16 15 12 11 12 11 10 10 10 9 8 8 7 6 5 5 5 6 6 6 6 5 4 4 4 4 4 4 4 4 5 5 4 4 4 3 2 2 1 1 2 4 4 3 3 3 2 3 2 1 1 1 3 4 4 5 5 5 6 6 6
Wind_Direction
187 186 190 191 191 193 192 191 195 196 192 193 195 195 194 193 191 191 189 188 191 194 196 198 200 198 199 200 201 201 201 204 205 205 208 212 215 213 209 211 211 215 219 215 212 209 206 206 206 205 203 204 207 212 220 220 213 211 211 216 222 232 247
187 187 188 189 190 192 190 190 195 196 195 196 196 195 193 190 189 190 189 189 192 196 198 200 202 201 202 203 203 204 204 206 208 210 212 213 214 216 215 217 215 217 223 222 216 209 204 205 207 211 213 210 209 210 218 219 215 215 214 213 221 227 238
188 188 187 187 189 191 191 191 194 195 197 198 196 195 192 189 190 190 189 190 192 195 199 201 203 204 205 205 206 207 208 209 210 211 214 215 215 217 218 220 221 219 220 220 215 208 203 201 204 211 214 213 212 212 216 219 216 219 217 215 226 230 231
186 188 187 186 187 189 191 192 193 195 198 199 196 195 193 191 191 191 191 193 193 195 200 202 204 206 206 207 209 211 212 212 212 213 216 217 217 218 219 219 220 220 218 213 209 206 202 201 203 208 210 209 210 212 217 220 218 217 216 219 227 232 233
182 182 183 185 184 185 186 189 193 194 196 198 197 195 193 192 192 193 194 196 197 198 200 202 205 205 206 208 210 212 214 214 215 216 217 219 219 218 219 219 218 218 216 212 207 206 207 208 207 206 206 207 210 213 216 217 218 216 213 218 227 233 235
168 168 175 182 181 177 177 184 192 194 194 195 194 192 191 189 191 195 194 194 198 199 199 202 206 205 206 209 211 212 213 213 215 218 219 220 220 219 218 219 220 218 215 213 210 208 209 212 212 207 206 209 211 213 214 214 217 215 212 218 227 238 243
169 170 177 179 172 174 183 185 189 193 191 190 188 186 186 187 188 192 192 193 194 194 196 201 204 205 207 210 211 212 213 214 215 217 221 221 221 220 220 220 221 219 215 212 212 212 212 213 213 209 209 211 212 212 211 210 214 213 213 221 227 237 246
177 173 177 175 167 180 191 181 182 192 187 181 182 182 183 184 185 187 189 190 190 191 196 201 203 204 206 208 212 213 214 216 217 218 221 222 221 221 221 220 220 218 216 214 213 214 215 215 212 210 209 212 212 212 213 210 214 220 222 227 231 237 241
172 165 170 174 170 179 182 165 169 190 181 172 177 179 183 186 186 188 189 188 188 190 195 200 201 200 201 204 208 212 215 219 220 219 221 222 223 222 219 218 217 216 216 218 216 214 214 216 214 208 208 214 213 211 215 214 217 225 228 229 234 239 243
162 163 170 178 174 169 164 156 167 182 176 174 180 180 184 189 188 191 193 192 193 194 196 199 199 197 197 201 205 209 214 219 221 222 222 222 223 222 220 219 217 215 216 219 218 214 211 213 214 209 207 216 219 216 219 219 219 224 227 230 232 238 242
149 165 173 178 173 162 157 155 162 169 172 181 188 185 185 182 178 185 195 199 200 198 197 197 194 193 195 199 203 207 212 216 219 222 223 224 224 223 222 221 219 216 216 219 219 217 211 209 211 211 212 218 223 222 222 222 222 224 226 230 232 234 238
147 167 175 178 175 166 162 158 154 158 170 180 183 185 187 178 173 182 194 201 202 200 197 193 191 192 196 199 201 203 208 214 218 222 224 225 227 227 224 222 221 219 217 218 219 217 214 210 209 212 215 219 222 223 223 223 223 225 228 232 234 233 236
154 164 171 177 176 169 168 168 163 164 175 181 173 173 178 174 176 185 192 197 198 196 193 191 190 194 199 200 198 198 202 210 218 224 226 226 227 229 228 225 223 221 219 218 219 219 217 213 211 212 215 218 222 223 222 222 224 226 229 234 237 238 239
145 142 141 156 159 156 168 178 176 173 178 186 183 172 169 172 180 188 196 200 201 201 202 200 196 198 202 202 200 198 200 207 216 222 226 227 226 228 229 229 227 225 223 221 221 222 222 219 216 215 216 219 223 225 225 225 227 228 230 234 238 240 242
137 127 126 135 137 140 152 160 162 169 178 183 185 182 180 184 188 194 199 201 202 205 211 213 210 208 209 206 205 203 199 202 210 212 213 217 219 222 225 227 228 228 227 225 225 225 226 226 224 222 221 222 223 227 230 230 230 230 228 228 233 239 243
137 132 134 133 136 140 140 134 130 139 158 171 180 185 186 190 196 201 203 204 204 204 207 212 213 214 216 217 216 210 201 201 206 203 202 205 209 217 224 225 226 227 227 226 227 228 228 229 230 228 227 227 227 228 230 233 234 233 230 230 235 243 248
139 137 131 127 129 125 119 118 116 110 105 105 118 138 144 147 161 179 194 206 212 211 208 209 211 212 216 219 219 215 211 210 210 208 208 208 207 213 220 223 224 224 225 225 225 226 226 227 229 231 233 234 233 231 231 233 233 232 234 239 244 248 252
122 119 112 110 109 103 103 106 106 102 96 92 92 98 105 107 109 117 141 179 202 208 210 215 216 216 216 214 211 211 215 218 219 220 220 217 213 213 214 219 223 222 222 225 225 221 221 224 227 230 233 236 236 235 235 235 233 231 235 243 247 250 255
111 109 105 105 105 105 105 101 101 100 97 95 94 95 103 110 108 105 99 100 150 183 190 210 220 221 221 218 210 208 210 213 216 217 217 218 217 213 209 209 216 221 224 227 227 221 217 221 224 226 229 233 235 236 236 237 234 231 234 242 248 254 259
115 108 106 108 107 106 105 102 103 103 101 100 98 95 100 107 106 103 96 94 115 144 136 119 133 168 188 199 204 206 205 207 210 213 217 222 224 223 219 214 214 219 224 229 230 226 221 220 220 221 224 227 230 232 235 237 237 233 235 241 247 255 261
116 110 107 106 105 105 106 107 106 104 102 101 99 98 100 102 101 98 95 94 97 103 106 103 95 89 98 110 128 163 184 196 207 212 217 223 227 231 233 231 225 222 224 231 233 231 229 228 225 224 225 226 228 231 232 233 233 232 235 240 246 254 259
116 112 109 108 108 107 106 107 104 101 98 98 98 99 99 100 99 95 92 91 90 89 95 96 89 83 88 93 95 102 116 132 145 164 188 205 213 216 216 220 220 214 216 226 231 229 229 231 232 231 231 231 232 232 231 232 233 233 234 238 242 247 251
113 114 112 109 106 101 98 99 97 94 93 93 93 92 90 88 89 90 92 92 86 80 80 82 84 86 88 87 89 92 94 102 112 117 129 146 158 161 164 180 195 194 194 207 218 220 221 225 229 234 236 235 235 233 231 236 240 239 238 241 243 241 240
114 115 112 109 107 103 98 96 95 94 93 92 90 89 90 87 83 83 86 88 87 81 74 71 74 81 84 82 84 84 83 87 98 102 108 115 112 105 111 129 162 180 180 182 189 195 204 207 201 207 221 220 226 232 226 229 240 243 243 245 244 239 234
113 112 110 109 107 105 101 98 96 95 93 91 91 91 92 88 83 82 84 85 87 85 79 73 68 69 73 76 79 80 79 80 83 82 84 87 80 73 74 75 99 174 173 176 177 166 159 178 175 131 50 152 210 235 227 225 245 253 250 248 244 238 232
119 117 113 109 107 106 104 101 100 96 91 90 92 92 90 86 81 78 78 81 82 79 77 75 71 67 67 70 73 76 77 77 75 73 73 72 70 70 72 69 114 169 141 147 192 184 142 147 154 120 94 129 163 175 168 131 65 250 242 242 237 232 226
121 120 112 110 112 114 110 104 100 96 94 92 91 89 88 85 81 77 75 76 75 71 68 70 73 73 71 70 72 75 76 74 69 67 68 66 65 69 74 70 71 93 90 85 173 175 151 141 135 122 117 125 134 131 124 106 76 70 75 100 153 189 192
104 110 109 110 112 114 111 108 104 100 98 98 97 96 95 91 87 85 83 80 76 73 69 67 71 73 73 75 76 75 76 75 71 67 65 62 61 60 62 62 61 66 80 106 125 131 132 127 123 122 121 122 121 119 137 178 218 257 297 72 86 83 80
87 101 108 111 113 113 110 108 104 99 97 96 95 97 100 101 101 97 90 84 79 78 78 75 76 79 79 79 78 78 78 77 75 73 68 64 65 62 61 64 72 79 91 108 117 117 111 106 106 113 121 126 124 114 108 128 226 259 274 290 14 32 34
91 94 96 97 102 106 105 104 101 96 92 89 90 93 97 101 102 98 92 88 83 80 80 79 81 84 85 83 81 79 78 75 73 75 74 70 70 68 65 67 73 75 79 89 102 105 102 102 105 109 117 124 126 121 112 102 87 57 0 357 18 22 21
101 98 93 89 86 87 93 95 93 90 90 87 85 87 88 91 93 91 86 82 80 78 77 77 78 79 79 81 80 76 77 78 71 68 69 71 72 71 68 68 71 68 67 77 87 90 92 103 114 121 128 131 127 123 118 103 79 55 37 28 30 29 22
113 121 120 114 108 105 102 91 83 88 95 94 90 87 83 81 82 79 71 61 55 56 59 68 77 77 69 67 70 67 70 76 74 68 68 70 74 74 68 62 67 65 62 71 84 84 80 85 99 118 132 129 120 119 116 105 78 37 20 16 18 17 14
107 121 128 134 139 142 141 130 119 118 108 95 90 89 84 78 74 69 60 52 48 49 53 59 71 78 76 69 67 62 60 62 63 66 68 66 69 77 72 63 63 64 57 52 56 64 68 70 67 67 71 78 83 94 111 136 109 14 9 5 5 6 5
144 140 133 138 150 153 151 151 149 140 126 113 102 91 84 79 73 64 54 47 47 50 54 54 55 63 72 75 72 66 63 63 60 60 66 65 61 60 58 53 54 59 55 45 39 39 37 39 48 48 35 25 25 21 351 290 331 13 4 354 354 357 359
168 166 157 157 165 175 169 160 153 143 135 130 120 103 93 85 75 66 57 48 46 51 57 56 51 48 49 53 59 59 56 57 55 48 49 63 73 69 54 41 40 57 59 43 29 22 15 17 29 31 22 17 18 14 355 347 356 353 342 335 336 343 349
170 173 169 167 169 181 186 169 154 146 141 134 127 117 107 97 84 73 62 53 50 53 56 56 54 50 44 39 38 36 32 38 47 41 31 36 53 64 54 37 32 41 51 41 26 12 357 342 338 343 350 5 20 7 334 316 321 323 320 318 317 320 330
171 173 175 174 174 180 181 170 158 153 147 140 137 131 119 111 101 84 73 68 63 61 60 56 55 56 53 49 43 32 21 22 29 30 26 26 27 30 36 35 30 25 20 19 21 24 19 3 343 335 323 309 16 2 330 305 298 303 306 302 297 301 312
175 175 177 181 184 184 178 172 169 164 156 150 149 143 135 130 120 103 89 81 74 71 69 63 58 55 51 52 52 42 30 25 20 14 11 10 10 10 2 347 356 49 31 16 5 5 10 10 2 1 356 325 214 253 304 307 303 303 303 296 289 291 297
Height
800 802 804 805 807 809 811 815 819 821 824 828 830 832 834 837 839 842 844 846 848 851 853 855 857 858 860 862 864 865 867 869 870 872 873 874 875 875 876 877 877 878 879 879 880 880 881 882 883 884 884 885 885 886 887 887 887 888 888 888 888 888 888
798 801 801 803 805 807 809 813 817 819 822 825 828 830 833 835 838 840 842 844 846 849 851 853 855 857 859 861 863 864 866 868 869 871 872 872 874 874 875 876 877 877 878 878 879 880 881 881 882 883 883 884 885 885 886 887 887 887 888 888 888 888 888
796 799 799 801 803 805 808 811 815 818 820 823 826 829 831 833 836 838 840 842 845 848 850 852 854 856 858 860 862 863 865 867 868 869 871 871 873 874 874 875 876 876 877 878 878 879 880 880 881 882 883 884 884 885 886 886 886 887 887 887 887 887 887
794 795 796 799 800 804 807 809 813 816 819 821 824 827 829 831 834 836 838 840 843 846 848 850 853 855 857 859 860 862 864 865 867 868 869 870 871 872 873 874 875 876 876 877 878 878 879 879 880 881 882 883 883 884 885 885 885 886 886 887 887 887 887
794 794 796 798 800 803 806 809 813 815 818 820 822 825 827 830 833 835 837 839 841 844 846 849 851 853 855 857 859 861 862 864 866 867 868 869 870 871 872 873 874 875 875 876 877 877 878 879 879 880 881 881 882 883 884 884 884 885 885 885 886 886 886
794 796 798 799 800 803 805 809 812 814 818 819 821 825 827 829 832 834 836 838 840 843 845 848 850 851 854 855 857 859 861 863 864 866 867 868 869 870 871 872 873 873 874 875 876 876 877 878 878 879 880 880 881 881 882 883 883 884 884 885 885 885 885
792 796 798 798 800 804 805 808 811 814 817 819 821 824 826 828 831 833 835 837 839 841 843 846 848 850 852 854 856 857 859 861 863 864 866 866 868 869 869 871 871 872 873 874 875 875 876 877 877 878 879 879 880 880 881 882 882 883 883 884 884 884 884
788 792 796 797 799 802 804 807 811 814 816 818 820 823 825 827 829 831 834 836 838 840 842 844 846 848 850 852 854 856 857 859 861 862 864 865 866 867 868 869 870 871 872 872 873 874 875 876 876 877 878 878 879 879 880 881 881 882 882 883 883 883 883
785 789 793 794 796 800 803 807 813 817 817 818 820 822 824 827 828 830 832 834 836 838 840 842 844 846 848 850 852 854 856 857 859 860 862 863 864 865 865 867 868 869 870 871 872 872 873 874 875 876 876 877 878 878 879 880 880 881 881 882 882 882 882
787 790 792 793 795 798 802 807 812 815 816 817 819 821 823 825 827 830 831 833 835 836 838 841 843 845 846 848 850 852 853 855 857 858 859 860 861 862 863 864 865 867 868 869 870 870 871 872 873 874 875 876 877 877 878 878 879 879 880 880 880 881 881
791 793 794 795 796 799 802 805 809 811 813 815 817 820 822 824 826 828 830 832 834 835 837 839 841 843 845 846 848 850 851 853 855 856 857 858 859 860 861 862 863 865 866 867 868 869 870 871 872 873 873 874 875 876 877 877 877 878 878 878 879 879 879
796 796 797 797 798 800 802 805 808 810 812 814 816 819 821 823 825 826 829 832 833 835 836 838 839 841 843 844 846 848 850 851 853 854 855 856 857 858 859 860 861 863 864 865 866 867 868 869 870 871 872 872 873 874 875 875 876 876 876 877 877 877 878
799 798 799 799 799 801 803 805 807 810 813 815 817 819 821 823 824 826 829 831 833 835 835 837 838 839 841 843 844 846 848 849 851 852 853 855 856 857 858 859 860 861 862 864 865 865 866 867 868 869 870 870 871 872 873 873 874 874 875 875 875 876 876
801 801 801 801 802 804 804 806 808 809 813 815 817 819 821 822 824 825 828 831 832 834 835 836 837 838 840 841 842 844 845 847 849 851 852 854 855 856 857 858 859 860 861 862 863 864 864 865 866 867 868 868 869 870 870 871 872 872 873 873 874 874 874
803 804 805 806 806 807 807 807 808 810 813 814 816 819 820 822 824 825 827 829 831 832 833 834 836 837 839 840 841 842 843 845 847 849 850 852 853 854 855 857 858 859 860 861 861 862 863 864 864 865 865 866 867 868 868 869 869 870 870 871 872 872 872
804 806 808 808 808 808 808 809 810 812 813 814 816 817 818 820 822 824 825 827 829 830 831 832 834 835 837 838 840 841 842 844 846 848 849 850 851 852 853 855 856 857 858 859 860 861 862 862 863 863 864 864 865 865 866 866 867 867 868 869 870 870 870
805 807 808 809 809 809 809 810 812 814 815 816 817 818 819 820 821 823 824 825 827 829 830 832 833 834 835 836 838 839 840 842 844 846 847 848 849 850 851 853 854 855 857 858 858 859 860 861 861 861 862 862 863 863 863 863 864 864 865 867 868 869 869
806 808 810 811 812 812 812 813 814 816 818 819 820 820 821 821 822 823 824 825 827 829 830 832 832 833 834 835 836 838 838 840 842 844 846 847 848 848 849 850 851 853 855 856 857 857 858 859 859 860 860 860 860 861 860 861 861 861 863 864 865 866 867
810 811 812 813 814 814 816 817 817 819 820 821 822 822 822 823 823 824 826 827 827 828 829 831 832 833 833 834 835 836 837 839 841 842 844 846 847 848 848 848 849 851 853 854 855 855 855 856 857 857 858 858 858 858 858 859 859 859 860 862 863 864 864
812 813 814 815 816 816 818 819 820 821 822 823 824 824 825 825 826 827 828 829 829 829 829 830 832 833 833 833 834 835 837 838 839 841 843 844 846 847 847 847 847 848 850 852 853 853 853 854 854 854 855 855 856 857 857 857 857 857 857 859 860 860 861
813 815 817 818 818 819 821 822 822 823 824 824 825 825 827 828 828 829 830 831 831 831 831 832 833 834 833 833 834 835 836 837 838 839 840 841 843 845 845 846 846 846 848 849 851 852 852 852 852 852 853 853 854 854 855 855 854 854 855 856 857 858 858
813 816 819 820 821 822 823 824 825 825 826 826 826 827 828 829 830 831 831 833 834 834 834 834 834 835 835 834 835 835 836 836 837 838 839 840 842 843 843 844 844 844 845 847 849 850 850 850 850 850 851 852 852 852 853 853 852 852 853 853 854 855 856
814 817 820 821 823 824 826 827 827 828 829 829 829 830 830 831 832 832 833 834 836 836 837 836 836 837 837 836 837 838 838 838 838 839 839 840 841 842 842 843 844 844 844 845 847 848 849 849 849 849 850 850 850 851 852 851 850 850 851 851 851 852 853
816 819 821 823 825 826 828 830 830 831 832 832 832 833 833 834 834 834 834 836 837 838 839 839 839 839 839 839 840 840 840 840 840 840 840 841 841 842 842 842 843 843 844 844 845 846 847 847 848 848 848 848 849 851 851 850 849 849 850 849 849 850 851
818 821 823 825 827 828 830 832 832 834 834 835 836 836 836 837 836 836 837 838 839 840 840 841 842 841 842 842 842 841 841 841 841 841 842 842 843 843 843 842 843 843 844 844 845 845 846 847 847 847 847 847 849 851 852 850 849 849 849 849 848 848 849
820 823 824 826 829 831 833 834 835 836 837 838 839 839 840 840 839 839 840 840 841 842 842 843 843 843 843 843 843 843 842 842 842 842 843 843 844 844 843 843 843 843 844 845 846 846 847 847 846 845 846 847 849 851 852 852 850 849 849 848 848 848 848
823 824 826 829 831 833 835 836 837 838 840 841 842 842 843 843 843 843 843 843 844 844 845 845 845 845 845 845 845 845 844 843 843 844 844 845 845 845 844 843 843 843 844 846 846 846 847 847 845 844 844 846 847 849 851 851 851 851 850 849 848 848 848
828 828 830 831 834 836 837 838 839 840 842 843 844 845 845 846 846 847 847 847 847 847 847 847 847 847 847 847 847 846 846 845 845 845 846 845 845 845 845 845 844 845 846 847 847 847 847 847 846 845 845 846 848 850 850 850 851 852 852 850 849 849 849
836 835 834 833 835 838 839 840 841 842 843 845 846 847 848 849 849 849 849 849 849 849 849 849 849 849 849 849 848 848 848 847 847 847 847 847 847 847 847 847 847 848 848 848 848 848 848 847 847 848 848 849 850 851 852 851 851 851 852 851 850 850 849
840 840 839 837 838 840 841 843 844 844 846 847 848 849 850 851 851 851 850 851 851 851 851 850 850 850 850 850 849 849 849 849 848 848 848 848 848 848 848 848 849 849 850 849 848 848 848 848 849 851 851 851 852 852 852 852 851 851 851 851 850 849 848
842 843 843 843 844 844 845 846 846 847 849 849 850 851 851 852 852 852 852 852 852 852 852 851 850 850 850 850 850 849 849 849 849 849 849 849 849 849 849 849 849 850 850 850 850 850 850 850 851 852 852 852 852 852 851 851 851 851 850 850 848 847 846
845 846 846 846 847 849 849 849 848 849 850 851 852 852 852 852 853 853 853 853 852 852 852 851 851 850 850 850 850 850 850 850 850 850 850 850 850 850 850 850 850 851 851 851 851 851 851 852 852 852 852 851 851 851 851 850 850 850 850 848 847 846 845
848 848 849 849 850 851 852 851 850 851 851 852 853 853 853 853 853 854 854 854 853 853 852 852 851 851 850 850 850 850 851 851 850 850 850 850 850 850 850 851 851 851 852 852 852 852 852 853 853 852 852 851 850 850 850 850 851 851 850 848 847 847 846
849 849 849 850 851 852 852 852 852 852 853 855 855 855 855 855 854 855 855 854 854 853 853 852 852 852 851 851 851 851 851 851 851 851 851 851 851 851 852 852 852 852 853 853 853 853 853 853 853 853 852 851 851 851 850 850 850 851 850 849 849 848 848
848 849 849 849 851 852 853 853 853 853 855 856 856 856 856 856 856 856 855 855 854 854 853 853 853 852 852 852 851 851 851 851 852 852 851 851 852 852 853 853 853 853 853 853 853 853 853 853 853 853 853 852 852 852 851 851 851 850 850 850 849 849 848
846 848 848 848 849 852 853 854 854 854 855 856 856 857 857 857 857 857 857 856 855 854 854 854 853 853 853 853 852 852 852 852 852 853 853 852 852 852 853 853 853 854 854 853 853 853 852 853 852 852 852 853 853 852 852 852 851 851 850 850 849 849 849
844 846 848 848 849 851 852 853 853 854 855 856 856 857 857 858 858 858 858 857 857 856 855 855 855 855 854 854 855 854 854 854 854 855 855 854 854 854 853 853 853 853 853 853 853 853 853 853 852 852 852 853 853 852 852 852 852 851 851 850 849 849 849
843 845 847 849 849 850 851 852 853 854 854 856 857 857 858 858 859 859 859 858 858 857 857 856 856 856 855 856 856 856 856 856 856 856 857 856 855 855 854 853 853 853 853 853 853 853 853 853 853 853 852 852 852 852 852 851 851 851 851 850 850 849 849